Notices

What's New in latest Release from April 7th, 2021:

- Updated Glossary, including Speed of Maximum Gust, and Total Hourly Precipitation

- Updated national and regional climate services offices contacts and prices information

- Addition of station inventory lists for 1981-2010, 1971-2000, and 1961-1990 Normals.

If you haven't already, please take our survey and provide feedback about our website: https://eccc.sondage-survey.ca/f/LanguageSelection.aspx?s=442ca660-fcf1-47c0-95a9-59707d6fd709

Hourly Data Report for November 02, 2019

VICTORIA UNIVERSITY CS
BRITISH COLUMBIA
Current Station Operator: ECCC - MSC

48°27'25.200" N
123°18'16.600" W
60.10 m
1018598
71783
WYJ

Download Data

Hourly Data (November 2019)
Hourly Data Report for November 2, 2019
TIME
LST
Temp Definition
°C
Dew Point Definition
°C
Rel Hum Definition
%
Precip. Amount Definition
mm

Wind Dir Definition
10's deg

Wind Spd Definition
km/h
Visibility Definition
km
Stn Press Definition
kPa
Hmdx Definition


Wind Chill Definition


Weather Definition


00:00 6.7 6.2 97 0.0 35 4   102.21     LegendNANA
01:00 5.6 4.9 95 0.0 34 2   102.20     LegendNANA
02:00 3.9 3.3 96 0.0 0 1   102.14     LegendNANA
03:00 4.8 4.5 98 0.0 36 3   102.10     LegendNANA
04:00 6.2 5.3 94 0.0 35 6   102.08     LegendNANA
05:00 6.6 5.4 92 0.0 36 7   102.04     LegendNANA
06:00 6.7 5.4 92 0.0 35 7   102.00     LegendNANA
07:00 6.5 5.5 94 0.0 36 7   101.97     LegendNANA
08:00 6.7 5.8 94 0.0 36 7   101.99     LegendNANA
09:00 8.3 6.6 89 0.0 1 8   102.00     LegendNANA
10:00 8.9 7.1 89 0.0 2 8   102.01     LegendNANA
11:00 9.4 6.8 84 0.0 1 10   101.94     LegendNANA
12:00 10.6 6.7 77 0.0 5 5   101.90     LegendNANA
13:00 10.6 6.4 75 0.0 2 7   101.81     LegendNANA
14:00 11.3 6.5 72 0.0 3 6   101.77     LegendNANA
15:00 10.8 6.1 73 0.0 2 7   101.73     LegendNANA
16:00 10.0 6.1 77 0.0 36 6   101.68     LegendNANA
17:00 7.7 5.6 86 0.0 21 3   101.65     LegendNANA
18:00 6.1 5.1 93 0.0 33 2   101.65     LegendNANA
19:00 5.6 5.1 97 0.0 33 3   101.65     LegendNANA
20:00 5.2 4.7 97 0.0   0   101.65     LegendNANA
21:00 4.9 4.6 98 0.0 32 1   101.69     LegendNANA
22:00 4.3 4.0 98 0.0 26 2   101.67     LegendNANA
23:00 5.1 4.9 99 0.0 29 4   101.64     LegendNANA

Notes on Data Quality.

Legend

  • E = Estimated
  • M = Missing
  • NA = Not Available*
  • [empty] = Indicates an unobserved value
Date modified: